This demonstration page uses our WeatherBlox Daily Observations layout. Learn more.

Left ArrowRight Arrow

Hourly Observations for June 26, 2021

Temp ( °F °C ) Dew Point ( °F °C ) Humidity (%) Winds ( mph kmh ) Pressure ( in mb ) Visibility ( mi km ) Precip ( " mm )
12:15 am 00:15 Clear 64 17.9 61 16.2 90 90 NNW 9 15 29.78 1008 10 16 N/A
12:35 am 00:35 Clear 64 17.8 62 16.5 92 92 NNW 6 9 29.78 1008 10 16 N/A
12:55 am 00:55 Clear 64 17.6 62 16.5 93 93 NNW 7 11 29.79 1009 10 16 N/A
1:15 am 01:15 Clear 64 17.5 61 16.2 92 92 NNW 6 9 29.78 1008 10 16 N/A
1:35 am 01:35 Clear 63 17.3 61 16.1 93 93 NNW 7 11 29.77 1008 10 16 N/A
1:55 am 01:55 Clear 63 17.1 61 16 93 93 NNW 7 11 29.77 1008 10 16 N/A
2:15 am 02:15 Clear 63 17.1 60 15.8 92 92 NW 7 11 29.77 1008 10 16 N/A
2:35 am 02:35 Clear 63 17 60 15.6 92 92 NW 7 11 29.79 1009 10 16 N/A
2:55 am 02:55 Clear 62 16.7 60 15.5 93 93 NW 8 13 29.80 1009 10 16 N/A
3:15 am 03:15 Clear 61 16.3 59 15 92 92 NW 8 13 29.80 1009 10 16 N/A
3:35 am 03:35 Partly Cloudy 61 16.2 59 14.8 91 91 NW 6 9 29.81 1009 10 16 N/A
3:55 am 03:55 Mostly Cloudy 62 16.5 58 14.7 89 89 NW 6 9 29.80 1009 10 16 N/A
4:15 am 04:15 Cloudy 62 16.5 58 14.6 89 89 NNW 6 9 29.80 1009 10 16 N/A
4:35 am 04:35 Mostly Cloudy 61 16.3 58 14.5 89 89 NNW 6 9 29.79 1009 10 16 N/A
4:55 am 04:55 Partly Cloudy 60 15.8 58 14.2 90 90 NNW 6 9 29.79 1009 10 16 N/A
5:15 am 05:15 Partly Cloudy 60 15.5 57 14.1 91 91 NW 6 9 29.80 1009 10 16 N/A
5:35 am 05:35 Mostly Cloudy 60 15.5 58 14.2 92 92 NW 6 9 29.80 1009 10 16 N/A
5:55 am 05:55 Partly Cloudy 60 15.6 58 14.3 92 92 NNW 6 9 29.79 1009 10 16 N/A
6:15 am 06:15 Sunny 60 15.7 58 14.5 93 93 NNW 7 11 29.79 1009 10 16 N/A
6:35 am 06:35 Sunny 61 16.3 58 14.6 90 90 NW 7 11 29.81 1009 10 16 N/A
6:55 am 06:55 Sunny 62 16.7 59 14.9 89 89 NNW 8 13 29.81 1009 10 16 N/A
7:15 am 07:15 Partly Cloudy 64 17.5 59 15.1 86 86 NW 8 13 29.81 1009 10 16 N/A
7:35 am 07:35 Partly Cloudy 64 17.9 60 15.4 85 85 NW 8 13 29.80 1009 10 16 N/A
7:55 am 07:55 Mostly Cloudy 65 18.3 60 15.6 84 84 NNW 8 13 29.81 1010 10 16 N/A
8:15 am 08:15 Mostly Cloudy 65 18.3 60 15.5 84 84 NNW 9 15 29.82 1010 10 16 N/A
8:35 am 08:35 Partly Cloudy 66 18.7 60 15.8 83 83 N 9 15 29.81 1009 10 16 N/A
8:55 am 08:55 Sunny 67 19.5 61 16.1 81 81 NNW 9 15 29.81 1010 10 16 N/A
9:15 am 09:15 Partly Cloudy 69 20.6 61 16.2 76 76 N 12 19 29.81 1010 10 16 N/A
9:35 am 09:35 Mostly Cloudy 70 21 61 16.1 74 74 N 13 20 29.81 1009 10 16 N/A
9:55 am 09:55 Partly Cloudy 72 22 62 16.4 71 71 N 15 24 29.81 1010 10 16 N/A
10:15 am 10:15 Mostly Cloudy 72 22.4 61 16.2 68 68 N 12 19 29.81 1009 10 16 N/A
10:35 am 10:35 Cloudy 72 22 61 15.9 68 68 N 9 15 29.82 1010 10 16 N/A
10:55 am 10:55 Cloudy 72 22.1 61 16.1 69 69 NNW 8 13 29.82 1010 10 16 N/A
11:15 am 11:15 Cloudy 72 22.1 60 15.7 67 67 NNW 7 11 29.82 1010 10 16 N/A
11:35 am 11:35 Cloudy 73 23 61 16.2 66 66 NNW 10 17 29.81 1010 10 16 N/A
11:55 am 11:55 Cloudy 73 23 60 15.8 64 64 N 13 20 29.81 1010 10 16 N/A
12:15 pm 12:15 Cloudy 74 23.4 60 15.8 62 62 NNW 9 15 29.81 1009 10 16 N/A
12:35 pm 12:35 Cloudy 74 23.1 61 16.1 65 65 NW 9 15 29.81 1010 10 16 N/A
12:55 pm 12:55 Cloudy 74 23.1 60 15.4 62 62 NW 9 15 29.82 1010 10 16 N/A
1:15 pm 13:15 Cloudy 73 22.7 60 15.6 64 64 NW 10 17 29.83 1010 10 16 N/A
1:35 pm 13:35 Cloudy 72 22.1 60 15.6 67 67 N 12 19 29.84 1011 10 16 N/A
1:55 pm 13:55 Cloudy 74 23.6 60 15.7 61 61 NNW 9 15 29.83 1010 10 16 N/A
2:15 pm 14:15 Cloudy 74 23.4 58 14.6 58 58 N 12 19 29.83 1010 10 16 N/A
2:35 pm 14:35 Cloudy 74 23.5 58 14.7 58 58 NW 8 13 29.83 1010 10 16 N/A
2:55 pm 14:55 Cloudy 74 23.1 58 14.3 58 58 NNW 7 11 29.83 1010 10 16 N/A
3:15 pm 15:15 Cloudy 75 23.8 59 15.1 58 58 NNW 8 13 29.83 1010 10 16 N/A
3:35 pm 15:35 Cloudy 75 23.9 57 13.8 53 53 NNW 10 17 29.82 1010 10 16 N/A
3:55 pm 15:55 Cloudy 75 23.7 57 13.9 54 54 NNW 10 17 29.83 1010 10 16 N/A
4:35 pm 16:35 Sunny 77 24.9 58 14.2 51 51 NW 7 11 29.81 1009 10 16 N/A
4:55 pm 16:55 Sunny 78 25.3 58 14.3 51 51 NNW 7 11 29.80 1009 10 16 N/A
5:15 pm 17:15 Sunny 78 25.7 57 14 48 48 N 8 13 29.80 1009 10 16 N/A
5:35 pm 17:35 Partly Cloudy 78 25.7 55 12.8 45 45 NNW 10 17 29.80 1009 10 16 N/A
5:55 pm 17:55 Mostly Cloudy 78 25.8 55 12.9 45 45 N 7 11 29.80 1009 10 16 N/A
6:15 pm 18:15 Mostly Cloudy 79 25.9 55 12.5 43 43 N 8 13 29.80 1009 10 16 N/A
6:35 pm 18:35 Partly Cloudy 77 25 54 12.3 45 45 NNW 8 13 29.81 1009 10 16 N/A
6:55 pm 18:55 Partly Cloudy 78 25.4 54 12 43 43 NNW 8 13 29.80 1009 10 16 N/A
7:15 pm 19:15 Partly Cloudy 77 25 53 11.8 44 44 NNW 8 13 29.81 1009 10 16 N/A
7:35 pm 19:35 Partly Cloudy 77 25 55 12.7 46 46 N 3 6 29.81 1009 10 16 N/A
7:55 pm 19:55 Sunny 76 24.5 56 13.3 50 50 N 3 6 29.82 1010 10 16 N/A
8:15 pm 20:15 Partly Cloudy 74 23.6 56 13.5 53 53 N 5 7 29.83 1010 10 16 N/A
8:35 pm 20:35 Partly Cloudy 73 22.5 58 14.7 61 61 N N/A 29.84 1010 10 16 N/A
8:55 pm 20:55 Sunny 71 21.8 59 15 65 65 N N/A 29.84 1011 10 16 N/A
9:15 pm 21:15 Clear 70 21.3 60 15.5 70 70 N N/A 29.87 1011 10 16 N/A
9:35 pm 21:35 Clear 69 20.3 60 15.4 74 74 E 3 6 29.88 1012 10 16 N/A
9:55 pm 21:55 Clear 67 19.5 60 15.5 78 78 N N/A 29.89 1012 10 16 N/A
10:15 pm 22:15 Clear 67 19.3 60 15.6 79 79 N N/A 29.91 1013 10 16 N/A
10:35 pm 22:35 Clear 67 19.2 60 15.6 80 80 N N/A 29.91 1013 10 16 N/A
10:55 pm 22:55 Clear 66 19 60 15.5 80 80 N N/A 29.92 1013 10 16 N/A
11:15 pm 23:15 Clear 64 17.8 60 15.3 85 85 N N/A 29.93 1013 10 16 N/A
11:35 pm 23:35 Clear 65 18.3 59 15.2 82 82 N N/A 29.92 1013 10 16 N/A
11:55 pm 23:55 Clear 64 17.6 59 15.2 86 86 N N/A 29.94 1014 10 16 N/A

Powered by AerisWeather